Location: El Álamo
(40.2307°N, 3.9945°W)
Time: 04:47:51
(UTC+00:00)

ATLAS 3B R/B - Pass Details

Date: 19 May 2025
Orbit: 935 x 1258 km, 63.8° (Epoch: 23 June)

Event Time Altitude Azimuth Distance (km) Brightness Sun altitude
Exits shadow 21:30:09 16° 95° (E) 2,658 4.4 -18.9°
Drops below altitude 10° 21:33:40 10° 68° (ENE) 3,151 5.0 -19.4°
Sets 21:37:41 0° 49° (NE) 4,165 5.8 -19.8°
